Total_Precipitation_Accumulation
0.03 0.07 0.17 0.11 0.08 0.08 0.08 0.09 0.10 0.12 0.15 0.16 0.18 0.20 0.21 0.21 0.19 0.18 0.16 0.19 0.26 0.34 0.40 0.43 0.41 0.37 0.32 0.25 0.14 0.05 0.03 0.03 0.03 0.03 0.03 0.05 0.06 0.06 0.05 0.04 0.04 0.06 0.09
0.03 0.06 0.16 0.12 0.10 0.10 0.11 0.11 0.09 0.09 0.12 0.16 0.20 0.22 0.22 0.22 0.21 0.16 0.17 0.22 0.28 0.30 0.32 0.34 0.28 0.22 0.20 0.14 0.06 0.02 0.02 0.02 0.01 0.01 0.01 0.02 0.03 0.04 0.04 0.04 0.04 0.06 0.09
0.05 0.08 0.15 0.13 0.11 0.12 0.12 0.10 0.08 0.08 0.12 0.16 0.20 0.22 0.22 0.22 0.18 0.18 0.21 0.22 0.25 0.27 0.24 0.19 0.11 0.07 0.06 0.04 0.02 0.02 0.01 0.01 0.01 0.01 0.01 0.03 0.03 0.04 0.04 0.05 0.07 0.09 0.10
0.06 0.11 0.13 0.16 0.14 0.14 0.12 0.10 0.09 0.09 0.13 0.17 0.20 0.22 0.24 0.23 0.17 0.19 0.22 0.19 0.21 0.20 0.13 0.08 0.04 0.02 0.01 0.01 0.01 0.01 0.01 0.01 0.01 0.01 0.03 0.04 0.05 0.08 0.09 0.09 0.11 0.11 0.11
0.10 0.13 0.16 0.18 0.20 0.18 0.14 0.11 0.10 0.11 0.13 0.16 0.18 0.23 0.24 0.25 0.21 0.21 0.18 0.14 0.14 0.12 0.07 0.03 0.02 0.01 0.01 0.01 0.01 0.01 0.01 0.00 0.00 0.01 0.03 0.04 0.07 0.13 0.14 0.12 0.11 0.12 0.12
0.15 0.18 0.24 0.24 0.24 0.23 0.19 0.16 0.14 0.13 0.15 0.16 0.17 0.21 0.26 0.27 0.28 0.26 0.16 0.10 0.09 0.08 0.05 0.02 0.01 0.01 0.01 0.01 0.01 0.01 0.01 0.00 0.00 0.01 0.02 0.04 0.07 0.16 0.15 0.13 0.13 0.15 0.17
0.20 0.25 0.29 0.32 0.31 0.28 0.26 0.23 0.19 0.18 0.18 0.18 0.17 0.22 0.28 0.28 0.28 0.27 0.17 0.09 0.07 0.05 0.03 0.01 0.01 0.01 0.01 0.01 0.01 0.01 0.00 0.00 0.00 0.01 0.03 0.04 0.10 0.19 0.18 0.15 0.16 0.17 0.18
0.26 0.29 0.33 0.36 0.34 0.31 0.31 0.29 0.26 0.24 0.23 0.22 0.22 0.27 0.32 0.30 0.23 0.22 0.16 0.09 0.06 0.05 0.03 0.01 0.01 0.01 0.02 0.02 0.02 0.01 0.00 0.00 0.01 0.02 0.03 0.05 0.10 0.17 0.15 0.13 0.12 0.13 0.14
0.44 0.44 0.42 0.40 0.37 0.35 0.30 0.29 0.29 0.30 0.27 0.24 0.24 0.27 0.31 0.31 0.22 0.17 0.12 0.08 0.06 0.04 0.04 0.03 0.02 0.02 0.03 0.03 0.02 0.01 0.00 0.00 0.01 0.02 0.02 0.04 0.07 0.12 0.10 0.09 0.09 0.09 0.11
0.72 0.63 0.54 0.49 0.42 0.35 0.31 0.30 0.30 0.31 0.29 0.26 0.24 0.21 0.21 0.21 0.19 0.17 0.10 0.08 0.07 0.05 0.04 0.03 0.03 0.03 0.02 0.01 0.01 0.01 0.00 0.00 0.00 0.01 0.01 0.02 0.03 0.05 0.05 0.06 0.07 0.07 0.09
1.01 0.85 0.70 0.64 0.55 0.44 0.35 0.31 0.32 0.31 0.27 0.24 0.23 0.19 0.17 0.19 0.17 0.14 0.08 0.08 0.06 0.04 0.03 0.02 0.02 0.02 0.01 0.00 0.00 0.00 0.00 0.00 0.00 0.00 0.01 0.01 0.02 0.03 0.05 0.07 0.07 0.07 0.08
1.13 0.99 0.86 0.76 0.67 0.55 0.44 0.35 0.33 0.31 0.26 0.20 0.17 0.18 0.15 0.16 0.16 0.12 0.08 0.07 0.08 0.05 0.03 0.02 0.01 0.00 0.00 0.00 0.00 0.00 0.00 0.00 0.00 0.00 0.00 0.00 0.01 0.03 0.05 0.06 0.06 0.06 0.07
1.24 1.19 1.03 0.89 0.79 0.66 0.52 0.41 0.36 0.31 0.28 0.23 0.16 0.15 0.14 0.14 0.16 0.13 0.10 0.09 0.09 0.05 0.03 0.02 0.01 0.00 0.00 0.00 0.00 0.00 0.00 0.00 0.00 0.00 0.00 0.00 0.01 0.02 0.04 0.06 0.07 0.07 0.07
1.30 1.32 1.15 1.02 0.88 0.77 0.61 0.47 0.39 0.33 0.29 0.23 0.17 0.13 0.13 0.13 0.12 0.10 0.09 0.08 0.08 0.05 0.03 0.02 0.01 0.00 0.00 0.00 0.00 0.00 0.00 0.00 0.00 0.00 0.00 0.00 0.00 0.02 0.03 0.05 0.07 0.09 0.10
1.30 1.31 1.30 1.14 1.00 0.81 0.71 0.60 0.47 0.34 0.27 0.24 0.21 0.16 0.12 0.10 0.10 0.10 0.08 0.08 0.07 0.06 0.05 0.03 0.01 0.01 0.00 0.00 0.00 0.00 0.00 0.00 0.00 0.00 0.00 0.00 0.00 0.01 0.02 0.04 0.08 0.12 0.16
1.24 1.26 1.29 1.28 1.19 0.98 0.75 0.65 0.57 0.42 0.33 0.27 0.24 0.19 0.15 0.12 0.10 0.10 0.09 0.08 0.07 0.06 0.04 0.02 0.02 0.01 0.00 0.00 0.00 0.00 0.00 0.00 0.00 0.00 0.00 0.00 0.00 0.00 0.01 0.03 0.09 0.15 0.21
1.26 1.23 1.28 1.29 1.34 1.19 0.94 0.75 0.67 0.54 0.41 0.33 0.26 0.24 0.20 0.16 0.13 0.11 0.11 0.09 0.07 0.07 0.05 0.03 0.03 0.02 0.01 0.01 0.01 0.00 0.01 0.00 0.00 0.00 0.00 0.00 0.00 0.00 0.01 0.03 0.08 0.14 0.21
1.40 1.26 1.29 1.30 1.40 1.37 1.17 0.96 0.79 0.68 0.54 0.41 0.31 0.28 0.26 0.22 0.19 0.17 0.15 0.13 0.11 0.09 0.08 0.06 0.04 0.03 0.03 0.03 0.02 0.02 0.02 0.01 0.01 0.01 0.01 0.01 0.01 0.01 0.01 0.01 0.04 0.09 0.16
1.46 1.38 1.33 1.29 1.35 1.42 1.38 1.23 1.05 0.89 0.70 0.56 0.44 0.36 0.33 0.30 0.26 0.20 0.17 0.18 0.17 0.13 0.11 0.10 0.07 0.06 0.06 0.05 0.05 0.03 0.02 0.02 0.01 0.01 0.01 0.01 0.01 0.01 0.02 0.02 0.02 0.03 0.07
1.56 1.46 1.40 1.36 1.39 1.52 1.58 1.52 1.33 1.12 0.93 0.77 0.63 0.52 0.45 0.39 0.34 0.29 0.22 0.20 0.22 0.20 0.17 0.15 0.14 0.12 0.09 0.09 0.07 0.04 0.03 0.02 0.02 0.02 0.02 0.02 0.02 0.02 0.02 0.02 0.03 0.03 0.03
1.57 1.54 1.40 1.42 1.41 1.53 1.63 1.57 1.40 1.21 1.13 1.00 0.87 0.77 0.64 0.52 0.44 0.39 0.32 0.29 0.28 0.27 0.27 0.26 0.24 0.20 0.17 0.16 0.14 0.08 0.04 0.03 0.02 0.02 0.02 0.01 0.02 0.02 0.02 0.03 0.04 0.05 0.06
1.38 1.54 1.45 1.45 1.49 1.43 1.46 1.63 1.69 1.60 1.42 1.26 1.11 0.96 0.82 0.70 0.61 0.51 0.41 0.37 0.33 0.30 0.31 0.31 0.30 0.28 0.25 0.24 0.22 0.18 0.09 0.04 0.02 0.03 0.03 0.02 0.02 0.03 0.04 0.05 0.06 0.07 0.09
1.26 1.47 1.50 1.50 1.55 1.47 1.52 1.83 2.02 2.02 1.75 1.48 1.27 1.11 0.97 0.89 0.83 0.73 0.60 0.51 0.42 0.36 0.32 0.34 0.38 0.37 0.32 0.27 0.25 0.27 0.20 0.10 0.07 0.05 0.05 0.05 0.05 0.06 0.06 0.07 0.08 0.09 0.10
1.18 1.37 1.45 1.56 1.62 1.62 1.65 1.78 1.80 1.73 1.58 1.39 1.35 1.28 1.19 1.09 0.99 0.90 0.80 0.71 0.60 0.51 0.42 0.41 0.45 0.46 0.46 0.39 0.31 0.28 0.27 0.23 0.22 0.14 0.07 0.07 0.09 0.08 0.09 0.10 0.10 0.11 0.11
1.10 1.30 1.35 1.42 1.50 1.56 1.55 1.62 1.77 1.65 1.51 1.43 1.41 1.33 1.23 1.18 1.09 1.00 0.90 0.84 0.77 0.68 0.62 0.57 0.54 0.55 0.53 0.49 0.44 0.40 0.39 0.34 0.31 0.31 0.20 0.12 0.12 0.13 0.13 0.13 0.12 0.12 0.12
0.91 1.16 1.28 1.36 1.43 1.51 1.50 1.51 1.64 1.56 1.38 1.24 1.20 1.20 1.12 1.09 1.02 0.95 0.90 0.84 0.79 0.75 0.71 0.67 0.66 0.64 0.62 0.58 0.53 0.49 0.50 0.47 0.40 0.42 0.39 0.26 0.23 0.21 0.21 0.22 0.20 0.20 0.20